Theta_e
315 315 316 317 317 317 317 318 319 319 319 318 318 319 320 320 320 320 320 319 320 317 316 316 315 315 308 296 296 302 305 306 308 307 303 299 298 299 297 300 302 301 300 301 300 296 296
313 314 314 315 315 314 315 315 316 316 315 315 315 316 316 317 319 320 320 320 320 317 315 315 315 314 301 292 302 303 303 303 305 305 302 302 299 301 298 297 298 298 301 297 296 296 295
310 311 312 312 313 312 312 313 313 313 313 313 313 313 314 315 315 317 318 319 319 315 314 315 315 309 296 295 302 303 303 302 303 304 301 303 302 299 299 295 297 295 292 295 294 294 292
307 308 308 309 310 310 310 310 311 311 311 311 311 312 313 314 314 316 318 319 316 313 313 315 315 303 293 301 304 301 303 301 303 304 304 304 303 299 297 297 294 291 291 288 293 292 292
308 307 306 306 307 308 308 308 309 309 309 309 310 311 311 312 313 314 317 318 312 311 313 314 305 298 291 302 297 301 302 299 301 302 301 300 300 297 294 291 289 290 287 288 287 292 291
306 306 307 306 305 305 305 306 306 306 306 306 307 308 309 310 311 313 316 314 311 309 307 304 299 293 294 292 298 299 302 302 299 299 297 296 295 292 292 290 285 288 286 288 289 288 288
306 305 305 306 306 305 304 304 304 304 304 304 305 306 307 308 309 311 313 307 304 301 300 299 297 293 293 296 299 296 300 299 299 296 291 293 289 285 289 291 292 288 288 287 288 287 285
305 305 307 306 305 305 305 303 303 303 303 303 303 304 305 306 307 309 310 300 297 299 293 303 297 295 296 298 291 294 299 293 293 288 291 288 285 291 290 290 288 287 286 287 286 286 285
304 304 305 305 305 305 305 306 306 305 303 302 303 302 303 304 306 309 304 300 305 304 295 299 295 294 294 296 292 292 296 294 290 288 288 287 287 289 288 286 285 286 286 286 284 286 287
302 302 302 302 302 302 303 303 304 304 305 305 303 303 303 303 305 305 304 304 306 305 293 295 291 293 294 295 290 295 296 293 289 287 289 288 289 287 286 286 287 284 285 284 284 285 285
301 300 300 300 300 300 300 300 301 301 302 303 304 304 303 302 300 301 301 304 305 303 279 292 289 297 295 291 291 290 296 292 288 287 288 285 285 284 285 286 287 285 286 285 285 285 284
300 299 298 298 298 298 298 298 299 299 300 301 302 303 303 299 300 305 305 303 303 288 279 287 290 289 288 290 290 291 291 293 291 287 287 284 287 286 286 286 285 287 286 285 285 285 282
299 299 298 297 297 298 298 298 298 298 299 300 301 302 301 300 296 304 305 302 286 280 291 287 286 288 288 287 287 288 286 285 284 281 281 282 283 285 286 283 286 285 283 283 282 280 284
301 300 299 299 298 299 299 298 299 298 298 298 299 300 301 300 300 303 301 292 279 285 286 288 286 287 285 287 287 287 286 284 287 285 285 280 279 282 285 284 283 282 286 288 280 282 283
300 299 300 299 299 299 298 299 298 299 298 298 298 297 297 300 305 303 294 283 283 287 290 288 285 285 285 286 286 286 285 286 288 286 284 282 281 283 283 285 286 282 279 284 281 273 279
299 300 299 299 299 299 299 299 299 299 298 298 293 293 295 301 304 298 286 284 287 293 292 289 287 287 285 284 283 284 285 289 287 288 290 287 281 281 283 285 285 283 284 280 282 278 278
299 299 299 299 299 298 299 299 298 298 298 297 291 287 297 300 300 290 281 284 289 293 294 289 288 286 288 284 286 287 290 289 288 286 288 287 284 278 282 279 280 279 280 280 283 282 283
298 298 299 298 298 298 298 298 298 298 298 295 289 280 297 300 285 285 283 288 291 291 294 293 291 289 287 287 285 285 286 287 289 286 282 285 285 280 280 282 283 284 283 284 284 279 279
298 298 299 298 298 298 298 298 298 298 297 293 285 284 294 295 279 283 286 286 288 287 289 289 289 291 291 286 284 286 286 287 288 285 285 284 283 279 279 279 281 280 282 282 281 283 279
298 298 298 298 298 298 298 298 298 297 297 293 285 278 286 288 288 281 280 280 283 290 289 290 289 291 287 286 289 286 287 286 287 285 286 289 284 282 280 281 282 277 280 281 282 281 283
297 297 297 297 298 298 298 298 297 297 297 293 285 280 283 277 280 280 280 281 279 280 287 289 287 287 287 284 285 284 288 284 285 286 285 283 279 283 283 281 281 281 280 281 278 281 281
297 297 297 297 297 297 297 297 297 297 297 290 282 281 284 280 280 279 279 277 277 278 280 280 283 286 287 284 287 284 286 286 285 285 282 283 279 278 279 281 279 277 280 282 281 280 281
297 297 297 297 297 297 297 297 297 297 296 289 289 289 282 279 278 277 277 277 277 279 281 283 282 280 282 283 286 290 293 290 288 284 282 282 280 278 278 280 281 278 283 282 282 283 282
297 297 297 297 297 297 297 297 297 297 296 291 289 287 279 275 278 277 278 278 277 278 277 280 282 280 284 287 285 288 287 286 285 286 286 282 282 283 279 278 275 286 287 290 284 285 284
297 297 297 297 297 297 297 297 297 297 296 291 292 286 281 275 278 278 278 278 279 280 279 279 282 284 286 283 278 281 280 280 281 283 283 285 283 278 277 278 282 285 285 282 283 285 289
296 296 296 296 296 295 296 296 296 296 296 292 291 293 284 278 277 280 278 279 277 277 278 280 285 287 285 280 277 276 276 279 275 276 282 281 282 281 276 276 276 284 283 284 286 281 291
296 296 296 295 296 296 295 295 296 296 296 293 291 292 285 279 282 281 278 277 280 279 277 279 282 282 285 278 275 278 279 282 275 273 273 276 277 277 277 278 282 287 282 283 280 285 285
296 295 295 295 295 295 295 294 295 296 296 294 291 291 285 281 282 282 282 279 280 279 275 280 278 281 280 275 278 280 280 279 279 280 276 276 276 276 279 276 275 282 281 282 287 286 286
295 295 295 295 295 295 295 294 295 294 295 295 288 292 290 284 283 287 286 287 285 284 282 282 279 280 281 278 277 276 277 279 280 275 280 277 283 279 281 281 285 284 286 286 286 286 286
Wind_Speed
18 18 20 19 19 20 20 21 21 20 20 18 18 18 16 16 17 18 18 19 18 17 15 12 9 7 5 6 6 3 2 3 5 10 10 10 12 14 13 15 7 16 6 8 7 4 5
18 18 18 17 16 17 18 18 20 20 20 21 20 19 19 18 18 20 21 21 20 18 16 12 8 6 5 8 4 2 1 2 5 9 8 7 8 5 9 5 13 4 16 8 5 8 5
18 18 19 19 19 18 17 17 18 19 20 19 20 20 20 19 19 21 23 23 22 19 13 9 7 5 6 7 2 2 3 1 2 6 8 3 3 7 3 4 1 1 6 12 11 8 4
17 17 17 18 19 19 19 18 18 19 19 19 20 20 21 21 21 23 23 24 22 13 5 5 7 3 6 2 1 2 4 3 1 2 2 4 4 5 2 4 4 6 5 8 8 9 5
15 15 15 17 17 18 18 20 20 20 20 20 21 21 22 23 22 23 25 25 15 5 3 9 6 3 4 2 4 3 4 4 5 4 3 5 2 3 4 5 5 9 6 13 6 8 3
15 16 17 14 14 16 18 18 19 19 20 21 21 22 23 24 24 23 27 23 5 4 4 5 2 4 3 1 3 2 2 6 3 8 5 5 5 6 7 9 7 6 9 6 9 8 9
14 14 15 16 15 14 15 17 19 19 19 19 21 22 23 24 26 25 18 7 5 6 7 9 5 4 3 3 2 3 1 5 5 7 8 6 8 13 14 16 12 6 7 7 3 4 4
16 15 14 16 16 16 17 15 18 17 19 20 22 22 24 25 26 26 10 5 3 4 12 12 13 7 2 3 4 5 4 9 8 10 7 5 13 10 3 3 7 9 10 10 3 4 4
16 16 17 18 18 19 20 20 19 18 18 20 20 23 24 25 27 11 5 3 3 3 8 5 5 6 4 8 4 9 10 4 9 12 14 9 2 4 6 7 9 10 10 5 4 4 8
15 16 17 17 18 19 20 21 21 21 22 20 21 21 24 28 9 9 2 4 2 3 6 5 5 3 5 4 5 3 6 4 4 11 9 11 7 7 6 10 9 9 2 2 2 4 4
14 14 16 17 18 19 18 21 22 22 22 23 24 21 21 20 10 5 6 5 4 4 7 5 4 2 4 6 5 5 2 3 7 7 5 4 8 9 7 2 8 2 4 2 1 3 4
13 12 13 16 17 17 18 19 20 22 23 22 23 24 22 11 8 7 7 6 4 4 11 2 4 6 6 7 5 5 4 2 2 3 1 3 2 2 2 6 1 10 5 3 1 2 4
12 14 12 12 14 15 16 18 19 21 22 21 22 24 20 10 6 7 8 4 3 8 3 3 4 6 9 8 8 8 10 10 7 7 9 4 5 4 5 5 5 5 4 1 3 4 4
14 14 12 13 14 16 17 18 18 20 21 23 25 24 10 10 11 6 3 3 10 3 7 1 1 4 7 8 6 9 7 10 15 5 3 9 7 12 11 3 4 11 3 3 6 4 2
16 12 15 14 16 16 17 18 19 19 20 24 24 8 9 6 4 3 3 9 8 6 4 6 3 3 5 6 3 8 9 7 8 15 8 5 3 2 1 1 2 6 8 3 5 2 2
14 13 16 15 16 15 18 17 19 20 20 21 10 9 6 6 5 3 4 16 7 7 3 4 6 6 5 5 7 9 10 5 6 11 5 2 3 2 4 3 3 3 3 4 2 5 6
15 15 18 14 15 15 16 18 16 17 19 15 7 7 5 5 1 4 12 12 8 16 4 5 4 4 5 6 7 5 4 3 5 6 4 5 6 5 5 10 10 5 4 4 2 3 4
15 16 16 16 18 16 16 18 17 17 16 8 3 5 5 5 4 4 10 5 6 16 8 13 5 6 5 6 6 6 7 4 5 9 9 6 3 6 6 3 3 11 6 9 5 7 3
17 18 20 18 18 18 17 18 17 15 13 5 6 7 6 3 7 9 7 12 16 18 17 4 10 13 8 6 3 6 5 2 5 7 6 7 4 5 3 3 4 8 12 6 2 1 8
20 20 19 19 19 19 18 17 17 12 11 4 4 5 3 3 7 10 15 14 19 16 13 19 12 6 2 6 7 6 4 2 1 2 1 6 5 6 10 5 3 6 13 16 9 5 6
18 19 18 18 19 19 18 18 16 17 13 4 4 4 3 5 7 10 13 10 19 9 9 5 7 8 7 6 5 6 5 4 4 3 1 3 7 9 11 3 2 6 6 15 18 13 11
19 20 20 20 20 20 18 19 18 14 16 4 4 3 4 9 11 18 15 8 12 14 5 12 17 14 12 16 7 2 7 6 5 7 7 3 4 3 4 7 5 8 13 13 17 16 16
21 23 22 21 22 23 20 20 19 19 15 4 5 6 5 10 14 14 15 19 16 17 13 9 6 12 10 7 20 9 7 4 5 9 12 9 7 5 5 1 4 15 22 19 9 9 13
23 22 24 24 25 24 24 22 21 22 18 6 5 4 6 12 13 16 20 20 16 17 19 19 18 11 4 16 18 2 3 2 9 8 9 5 6 5 2 4 8 3 3 12 24 20 21
24 24 25 26 25 26 26 26 24 24 24 9 7 6 6 12 15 21 22 22 22 19 16 16 18 17 16 11 6 5 4 3 4 6 11 6 4 4 5 7 9 8 6 6 9 12 20
25 26 27 28 29 25 27 27 27 25 25 10 8 5 5 10 17 23 18 15 11 9 12 11 13 12 8 4 5 8 10 6 8 7 4 6 3 4 4 5 7 1 2 2 1 9 8
27 28 30 29 29 30 28 27 26 28 26 13 5 9 5 8 12 12 9 10 9 8 7 7 5 3 8 5 8 11 12 1 10 13 9 7 4 9 7 6 7 4 5 7 3 3 2
31 31 31 32 31 30 31 24 25 22 25 17 7 10 8 5 5 6 5 8 9 6 9 3 7 6 5 5 6 8 5 8 5 10 10 12 10 7 4 7 10 6 5 8 1 3 2
35 34 33 34 28 26 29 25 24 16 24 20 8 9 10 6 5 7 16 20 22 18 6 4 7 7 3 3 3 6 7 4 6 7 6 8 6 8 11 9 1 11 1 5 1 1 1
Wind_Direction
19 17 19 21 19 18 14 17 17 19 15 14 6 357 337 328 326 324 324 324 321 314 303 298 294 297 276 232 259 114 300 209 200 184 190 180 188 203 212 212 197 233 220 243 242 232 253
25 23 20 15 17 19 14 10 12 13 11 7 5 355 350 349 338 327 323 323 322 311 298 284 271 273 242 249 100 53 167 146 214 191 181 200 206 207 244 235 214 328 231 229 220 231 240
13 16 17 18 20 19 15 10 11 10 6 3 358 355 345 336 345 336 325 321 322 313 298 265 226 229 247 269 140 72 169 219 207 221 175 173 189 216 169 173 107 241 222 229 224 216 242
14 7 7 5 7 10 9 7 11 7 4 360 357 352 344 335 346 340 327 322 321 316 310 173 177 192 268 92 159 152 161 117 136 141 133 145 185 115 305 102 168 215 241 225 145 185 175
19 16 14 7 4 5 4 3 3 358 359 357 359 353 343 341 341 340 328 323 313 305 127 146 169 214 254 138 212 146 219 149 127 119 111 138 178 132 160 197 200 206 252 216 167 202 185
3 10 4 5 8 6 360 356 352 349 348 349 352 345 342 340 337 337 326 312 291 178 192 184 204 232 164 176 129 156 122 165 154 138 133 188 184 198 209 199 221 221 223 230 230 174 219
10 6 354 4 4 0 4 358 356 350 348 345 341 338 338 338 335 331 329 311 269 200 214 268 275 269 151 105 196 169 154 176 167 208 197 198 214 207 206 217 260 305 275 256 126 127 257
358 7 8 360 353 351 342 346 344 347 352 349 348 339 336 333 328 323 296 337 39 346 297 266 244 242 183 182 181 182 171 203 198 203 172 177 236 234 94 199 225 243 251 250 100 175 248
3 10 12 11 6 6 7 3 356 341 340 343 342 347 338 332 319 297 321 337 353 306 267 249 215 222 178 178 223 178 181 209 221 207 202 211 75 132 177 180 198 224 238 242 302 217 239
357 358 1 357 356 355 357 360 360 356 352 342 343 342 345 336 295 340 323 20 318 295 280 239 199 163 160 177 223 118 209 242 218 227 206 236 129 177 193 206 206 232 137 178 236 274 274
351 350 358 355 351 346 344 346 350 344 349 351 347 338 338 337 301 305 2 329 305 246 288 100 146 62 158 207 119 151 135 187 231 190 203 160 172 181 205 212 187 103 142 144 214 264 311
339 343 351 353 349 349 348 344 342 339 339 338 344 341 334 334 309 285 324 311 264 223 243 184 139 175 174 199 175 127 164 173 14 179 225 61 358 223 59 87 272 141 137 138 198 258 242
325 334 341 344 340 339 341 343 347 347 343 332 330 335 320 303 274 356 323 257 218 230 330 237 206 190 212 188 188 195 184 185 190 179 205 160 181 145 157 122 130 209 169 207 218 192 250
326 318 322 321 322 330 333 338 336 341 347 343 331 325 310 290 276 310 280 223 221 238 226 135 162 200 209 173 218 192 195 216 216 224 180 196 222 177 174 247 196 187 224 229 236 215 104
314 321 313 312 317 323 327 332 332 339 342 339 331 308 296 294 335 199 221 216 222 188 188 167 102 199 214 226 251 196 217 230 215 198 215 213 189 70 17 101 321 162 210 32 101 94 264
322 316 313 315 307 318 318 323 325 332 339 348 326 312 291 346 311 241 213 228 225 235 167 163 212 191 201 188 198 203 206 205 209 198 231 174 262 207 132 222 125 269 140 149 204 205 232
317 319 315 315 311 313 316 320 320 328 333 346 338 317 46 347 256 245 225 224 240 251 220 223 245 204 225 182 214 205 244 167 190 163 188 171 226 124 160 206 175 161 209 232 304 233 245
314 310 303 312 309 309 306 310 312 317 332 339 319 305 48 331 271 242 244 232 260 280 316 259 259 259 211 191 195 229 231 233 154 152 168 199 236 218 198 75 303 232 236 196 222 182 230
304 305 305 303 304 302 303 308 310 318 320 335 296 289 270 271 255 246 270 266 267 265 271 247 256 240 221 198 227 210 235 94 161 178 179 173 222 227 206 202 181 217 207 228 87 301 201
309 308 301 302 303 302 300 302 306 304 303 323 281 297 275 228 270 287 296 290 265 242 269 256 276 257 244 230 223 208 209 163 127 231 69 133 225 240 230 49 96 202 206 199 204 204 172
301 300 299 297 295 294 291 295 294 296 285 280 209 244 264 282 294 306 315 308 290 304 276 259 216 212 211 249 200 213 191 179 160 167 166 230 244 216 247 246 232 264 226 205 212 224 219
303 302 299 294 288 283 286 288 284 282 276 250 259 247 235 261 276 286 280 289 310 312 285 296 252 264 241 245 262 318 182 188 190 166 170 241 246 204 265 198 198 267 250 217 220 235 253
300 303 301 301 299 294 286 277 276 278 270 237 207 258 258 269 271 268 266 275 276 292 292 268 320 347 306 348 317 291 265 156 155 172 185 175 205 186 251 134 221 266 238 221 204 211 206
301 301 304 305 299 296 291 281 272 265 255 235 231 232 259 264 258 260 264 262 277 278 273 289 298 279 308 319 325 115 101 178 167 183 149 202 194 184 108 172 225 339 300 234 214 228 216
299 296 294 293 292 292 290 285 275 264 262 241 228 199 244 260 260 263 255 262 272 271 271 273 279 268 284 302 289 217 171 171 194 185 175 189 196 163 206 218 318 287 180 175 192 251 227
297 301 300 297 301 295 286 282 277 263 253 249 232 184 229 250 247 254 266 251 255 275 278 243 275 271 263 237 236 246 211 187 187 161 170 156 298 251 170 227 220 63 105 80 192 272 213
300 298 295 299 297 295 291 281 277 265 247 242 228 177 209 257 269 235 212 237 232 255 276 287 273 219 194 241 260 244 227 149 171 173 166 159 168 221 197 238 281 238 151 118 221 328 15
294 292 293 293 295 292 287 281 277 267 257 240 218 177 199 241 229 195 236 242 245 229 246 267 314 199 207 247 260 242 252 198 175 165 171 170 163 185 174 220 257 129 83 190 90 358 76
291 291 287 288 289 287 276 273 257 248 264 229 221 175 201 227 271 206 235 241 236 237 278 229 265 300 319 313 45 326 317 167 181 195 204 201 212 174 195 204 124 195 306 192 117 132 122